Location: Alafon
(8.4500°N, 4.2333°E)
Time: 16:47:24
(UTC+00:00)

SR - Pass Details

Date: 05 August 2021
Orbit: 581 x 874 km, 66.7° (Epoch: 18 September)

Event Time Altitude Azimuth Distance (km) Brightness Sun altitude
Rises 03:38:27 0° 205° (SSW) 3,429 - -27.9°
Reaches altitude 10° 03:40:55 10° 207° (SSW) 2,507 - -27.3°
Exits shadow 03:46:31 69° 271° (W) 927 ? -26.1°
Maximum altitude 03:46:45 70° 290° (WNW) 921 ? -26.0°
Drops below altitude 10° 03:52:33 10° 14° (NNE) 2,485 ? -24.7°
Sets 03:54:59 0° 16° (NNE) 3,396 ? -24.2°
